| time (UTC) | temp F | wind direction | speed MPH | gust MPH | rain 1hr in | rain 24hr in | rain mn in | humidity % | barometer mb |
| 20260502123020 | 75 | 72 | 0.0 | 0.0 | 0.00 | 0.00 | 0.00 | 31 | 1022.2 |
| 20260502121523 | 75 | 49 | 0.0 | 0.0 | 0.00 | 0.00 | 0.00 | 34 | 1022.5 |
| 20260502114514 | 75 | 58 | 0.0 | 0.0 | 0.00 | 0.00 | 0.00 | 33 | 1022.9 |
| 20260502113010 | 74 | 58 | 0.0 | 0.0 | 0.00 | 0.00 | 0.00 | 35 | 1023.1 |
| 20260502111512 | 73 | 120 | 0.0 | 0.0 | 0.00 | 0.00 | 0.00 | 37 | 1023.3 |
| 20260502110006 | 72 | 74 | 0.0 | 0.0 | 0.00 | 0.00 | 0.00 | 37 | 1023.4 |
| 20260502104505 | 72 | 79 | 0.0 | 0.0 | 0.00 | 0.00 | 0.00 | 39 | 1023.6 |
| 20260502103115 | 71 | 61 | 0.0 | 0.0 | 0.00 | 0.00 | 0.00 | 44 | 1023.8 |
| 20260502101608 | 70 | 81 | 0.0 | 0.0 | 0.00 | 0.00 | 0.00 | 45 | 1024.0 |
| 20260502071514 | 55 | 85 | 0.0 | 0.0 | 0.00 | 0.00 | 0.00 | 68 | 1025.8 |
| 20260502070007 | 53 | 66 | 0.0 | 0.0 | 0.00 | 0.00 | 0.00 | 71 | 1025.9 |
| 20260502064559 | 52 | 61 | 0.0 | 0.0 | 0.00 | 0.00 | 0.00 | 72 | 1025.9 |
| 20260502063113 | 51 | 90 | 0.0 | 0.0 | 0.00 | 0.00 | 0.00 | 75 | 1026.0 |
| 20260502061550 | 49 | 90 | 0.0 | 0.0 | 0.00 | 0.00 | 0.00 | 77 | 1026.1 |
| 20260502060046 | 47 | 84 | 0.0 | 0.0 | 0.00 | 0.00 | 0.00 | 78 | 1026.2 |
| 20260502054552 | 46 | 84 | 0.0 | 0.0 | 0.00 | 0.00 | 0.00 | 79 | 1026.2 |
| 20260502053043 | 44 | 101 | 0.0 | 0.0 | 0.00 | 0.00 | 0.00 | 79 | 1026.3 |
| 20260502051534 | 43 | 163 | 0.0 | 0.0 | 0.00 | 0.00 | 0.00 | 79 | 1026.4 |
| 20260502050028 | 42 | 163 | 0.0 | 0.0 | 0.00 | 0.00 | 0.00 | 79 | 1026.5 |
| 20260502044524 | 41 | 163 | 0.0 | 0.0 | 0.00 | 0.00 | 0.00 | 79 | 1026.4 |
| 20260502043022 | 40 | 164 | 0.0 | 0.0 | 0.00 | 0.00 | 0.00 | 80 | 1026.3 |
| 20260502041517 | 40 | 163 | 0.0 | 0.0 | 0.00 | 0.00 | 0.00 | 80 | 1026.3 |
| 20260502040012 | 41 | 163 | 0.0 | 0.0 | 0.00 | 0.00 | 0.00 | 80 | 1026.3 |
| 20260502034513 | 41 | 164 | 0.0 | 0.0 | 0.00 | 0.00 | 0.00 | 80 | 1026.3 |
| 20260502033010 | 41 | 131 | 0.0 | 0.0 | 0.00 | 0.00 | 0.00 | 80 | 1026.2 |
| 20260502031508 | 41 | 132 | 0.0 | 0.0 | 0.00 | 0.00 | 0.00 | 80 | 1026.1 |
| 20260502030005 | 42 | 130 | 0.0 | 0.0 | 0.00 | 0.00 | 0.00 | 80 | 1026.2 |
| 20260502024504 | 42 | 132 | 0.0 | 0.0 | 0.00 | 0.00 | 0.00 | 80 | 1026.4 |
| 20260502023003 | 42 | 131 | 0.0 | 0.0 | 0.00 | 0.00 | 0.00 | 80 | 1026.4 |
| 20260502021600 | 42 | 121 | 0.0 | 0.0 | 0.00 | 0.00 | 0.00 | 79 | 1026.6 |
| 20260502020058 | 43 | 121 | 0.0 | 0.0 | 0.00 | 0.00 | 0.00 | 79 | 1026.6 |
| 20260502014557 | 43 | 121 | 0.0 | 0.0 | 0.00 | 0.00 | 0.00 | 79 | 1026.6 |
| 20260502013059 | 44 | 121 | 0.0 | 0.0 | 0.00 | 0.00 | 0.00 | 78 | 1026.8 |
| 20260502011553 | 44 | 122 | 0.0 | 0.0 | 0.00 | 0.00 | 0.00 | 78 | 1026.8 |
| 20260502010055 | 44 | 121 | 0.0 | 0.0 | 0.00 | 0.00 | 0.00 | 78 | 1026.9 |
| 20260502004549 | 45 | 121 | 0.0 | 0.0 | 0.00 | 0.00 | 0.00 | 77 | 1027.0 |
| 20260502003047 | 45 | 121 | 0.0 | 0.0 | 0.00 | 0.00 | 0.00 | 76 | 1027.0 |
| 20260502001545 | 45 | 121 | 0.0 | 0.0 | 0.00 | 0.00 | 0.00 | 76 | 1027.1 |
| 20260502000042 | 46 | 121 | 0.0 | 0.0 | 0.00 | 0.00 | 0.00 | 75 | 1027.3 |
| 20260501234539 | 46 | 121 | 0.0 | 0.0 | 0.00 | 0.00 | 0.00 | 74 | 1027.4 |
| 20260501233050 | 47 | 204 | 0.0 | 0.0 | 0.00 | 0.00 | 0.00 | 73 | 1027.4 |
| 20260501231537 | 47 | 204 | 0.0 | 0.0 | 0.00 | 0.00 | 0.00 | 73 | 1027.4 |
| 20260501230034 | 47 | 204 | 0.0 | 0.0 | 0.00 | 0.00 | 0.00 | 73 | 1027.5 |
| 20260501224605 | 47 | 204 | 0.0 | 0.0 | 0.00 | 0.00 | 0.00 | 73 | 1027.6 |
| 20260501223039 | 47 | 234 | 0.0 | 0.0 | 0.00 | 0.00 | 0.00 | 73 | 1027.6 |
| 20260501221533 | 48 | 234 | 0.0 | 0.0 | 0.00 | 0.00 | 0.00 | 72 | 1027.6 |
| 20260501220028 | 48 | 234 | 0.0 | 0.0 | 0.00 | 0.00 | 0.00 | 72 | 1027.7 |
| 20260501214531 | 48 | 234 | 0.0 | 0.0 | 0.00 | 0.00 | 0.00 | 72 | 1027.6 |
| 20260501213027 | 49 | 190 | 0.0 | 0.0 | 0.00 | 0.00 | 0.00 | 70 | 1027.5 |
| 20260501211529 | 50 | 190 | 0.0 | 0.0 | 0.00 | 0.00 | 0.00 | 69 | 1027.6 |
| 20260501210030 | 50 | 190 | 0.0 | 0.0 | 0.00 | 0.00 | 0.00 | 67 | 1027.6 |
| 20260501204525 | 51 | 190 | 0.0 | 0.0 | 0.00 | 0.00 | 0.00 | 66 | 1027.7 |
| 20260501203028 | 52 | 190 | 0.0 | 0.0 | 0.00 | 0.00 | 0.00 | 65 | 1027.7 |
| 20260501201527 | 53 | 182 | 0.0 | 0.0 | 0.00 | 0.00 | 0.00 | 63 | 1027.7 |
| 20260501200024 | 55 | 105 | 0.0 | 0.0 | 0.00 | 0.00 | 0.00 | 60 | 1027.8 |
| 20260501194523 | 57 | 98 | 0.0 | 0.0 | 0.00 | 0.00 | 0.00 | 56 | 1027.6 |
| 20260501193022 | 58 | 98 | 0.0 | 0.0 | 0.00 | 0.00 | 0.00 | 54 | 1027.6 |
| 20260501191521 | 58 | 98 | 0.0 | 0.0 | 0.00 | 0.00 | 0.00 | 53 | 1027.6 |
| 20260501190021 | 60 | 98 | 0.0 | 0.0 | 0.00 | 0.00 | 0.00 | 52 | 1027.6 |
| 20260501184521 | 61 | 98 | 0.0 | 0.0 | 0.00 | 0.00 | 0.00 | 50 | 1027.6 |
| 20260501183021 | 63 | 98 | 0.0 | 0.0 | 0.00 | 0.00 | 0.00 | 49 | 1027.5 |
| 20260501181520 | 64 | 98 | 0.0 | 0.0 | 0.00 | 0.00 | 0.00 | 47 | 1027.4 |
| 20260501180020 | 64 | 98 | 0.0 | 0.0 | 0.00 | 0.00 | 0.00 | 46 | 1027.3 |
| 20260501174619 | 65 | 98 | 0.0 | 0.0 | 0.00 | 0.00 | 0.00 | 46 | 1027.2 |
| 20260501173022 | 66 | 84 | 0.0 | 0.0 | 0.00 | 0.00 | 0.00 | 42 | 1027.1 |
| 20260501171519 | 68 | 79 | 0.0 | 0.0 | 0.00 | 0.00 | 0.00 | 41 | 1027.0 |
| 20260501170017 | 69 | 88 | 0.0 | 0.0 | 0.00 | 0.00 | 0.00 | 39 | 1027.2 |
| 20260501164515 | 69 | 69 | 0.0 | 0.0 | 0.00 | 0.00 | 0.00 | 39 | 1027.2 |
| 20260501163014 | 69 | 82 | 0.0 | 0.0 | 0.00 | 0.00 | 0.00 | 37 | 1027.3 |
| 20260501161512 | 69 | 160 | 0.0 | 0.0 | 0.00 | 0.00 | 0.00 | 37 | 1027.3 |
| 20260501160018 | 70 | 60 | 0.0 | 0.0 | 0.00 | 0.00 | 0.00 | 37 | 1027.3 |
| 20260501154514 | 68 | 126 | 0.0 | 0.0 | 0.00 | 0.00 | 0.00 | 37 | 1027.5 |
| 20260501153010 | 71 | 78 | 0.0 | 0.0 | 0.00 | 0.00 | 0.00 | 36 | 1027.6 |
| 20260501151509 | 68 | 66 | 0.0 | 0.0 | 0.00 | 0.00 | 0.00 | 37 | 1027.7 |
| 20260501150005 | 69 | 99 | 0.0 | 0.0 | 0.00 | 0.00 | 0.00 | 36 | 1027.8 |